This is the latest recevied weather packets stored in our database for station/object N6HGA-1. If no packets are shown the sender has not sent any weather packets the latest 10 day(s).
| Time | Temp. | Humidity | Pressure | Rain* | Wind** | Luminosity | Snow |
|---|---|---|---|---|---|---|---|
| 1788511670 | 17.78° C | 64% | - | 0 mm | - | - | - |
| 1788511368 | 17.78° C | 64% | - | 0 mm | - | - | - |
| 1788510768 | 17.78° C | 65% | - | 0 mm | - | - | - |
| 1788510465 | 17.78° C | 66% | - | 0 mm | - | - | - |
| 1788510165 | 18.33° C | 65% | - | 0 mm | - | - | - |
| 1788509864 | 18.33° C | 63% | - | 0 mm | - | - | - |
| 1788509562 | 18.33° C | 62% | - | 0 mm | - | - | - |
| 1788509260 | 18.33° C | 61% | - | 0 mm | - | - | - |
| 1788508659 | 18.33° C | 60% | - | 0 mm | - | - | - |
| 1788508359 | 18.33° C | 59% | - | 0 mm | - | - | - |
| 1788508058 | 18.89° C | 58% | - | 0 mm | - | - | - |
| 1788507760 | 18.89° C | 58% | - | 0 mm | - | - | - |
| 1788507758 | 18.89° C | 58% | - | 0 mm | - | - | - |
| 1788507457 | 18.89° C | 57% | - | 0 mm | - | - | - |
| 1788507155 | 19.44° C | 57% | - | 0 mm | - | - | - |
| 1788506855 | 19.44° C | 54% | - | 0 mm | - | - | - |
| 1788506547 | 19.44° C | 52% | - | 0 mm | - | - | - |
| 1788506247 | 18.89° C | 56% | - | 0 mm | - | - | - |
| 1788505943 | 18.33° C | 61% | - | 0 mm | - | - | - |
| 1788505643 | 18.33° C | 62% | - | 0 mm | - | - | - |
| 1788505342 | 18.89° C | 64% | - | 0 mm | - | - | - |
| 1788505039 | 19.44° C | 62% | - | 0 mm | - | - | - |
| 1788504739 | 19.44° C | 58% | - | 0 mm | - | - | - |
| 1788504437 | 19.44° C | 56% | - | 0 mm | - | - | - |
| 1788504134 | 19.44° C | 62% | - | 0 mm | - | - | - |
* Rain since midnight (hover to see other rain measurements)
** Current wind speed in m/s (hover to see current wind gust speed)